Location: Newark
(5.8900°S, 42.6378°W)
Time: 10:46:33
(UTC+00:00)

Vanguard 1 Rocket - Pass Details

Date: 27 October 2019
Orbit: 651 x 4225 km, 34.3° (Epoch: 12 November)

Event Time Altitude Azimuth Distance (km) Brightness Sun altitude
Rises 21:56:23 0° 289° (WNW) 8,444 13.3 -18.4°
Reaches altitude 10° 22:03:06 10° 283° (WNW) 7,252 12.8 -20.1°
Maximum altitude 22:24:35 44° 217° (SW) 3,707 10.7 -25.2°
Drops below altitude 10° 22:37:07 10° 147° (SSE) 4,377 10.7 -28.1°
Sets 22:40:05 0° 139° (SE) 4,989 11.0 -28.8°
